{"data":{"norad_id":67204,"epoch":"2026-09-20T13:02:11.853600Z","epoch_age_seconds":74702,"freshness":"FRESH","line1":"1 67204U 25304N   26263.54319275  .00003676  00000+0  31569-3 0  9996","line2":"2 67204  70.0020  43.0919 0002723 269.3609  90.7238 14.98337922 43076","mean_motion":14.98337922,"eccentricity":0.0002723,"inclination_deg":70.002,"raan_deg":43.0919,"arg_perigee_deg":269.3609,"mean_anomaly_deg":90.7238,"bstar":0.00031569,"rev_number":4307,"period_min":96.106490989554,"perigee_km":570.13886206745,"apogee_km":573.92392377424,"semimajor_km":6950.1683929208,"source":"CELESTRAK","updated_at":"2026-09-21T09:00:36.137583Z"}}